Location: Newark
(8.1700°N, 77.4300°E)
Time: 22:41:02
(UTC+00:00)

OTV 5 (USA 277) - Visible Passes

Search period start: 19 July 2019 00:00
Search period end: 29 July 2019 00:00
Orbit: 299 x 335 km, 54.5° (Epoch: 13 July)

Date Brightness Start Highest point End Pass type
(mag) Time Alt. Az. Time Alt. Az. Time Alt. Az.
19 Jul ? 13:34:00 10° N 13:36:10 20° NE 13:38:20 10° ESE visible
20 Jul ? 13:47:56 10° NW 13:50:42 72° WSW 13:53:24 10° SSE visible
21 Jul ? 14:03:35 10° W 14:05:11 14° WSW 14:06:46 10° SSW visible
26 Jul ? 23:32:05 16° SSE 23:33:20 21° ESE 23:35:25 10° ENE visible
27 Jul ? 23:46:57 33° WSW 23:47:48 55° WNW 23:50:22 10° NNE visible
